Powrót do katalogu

FENGYUN 1C DEB

AktywnyPO
NORAD 30724·DEBRIS·🇨🇳 China

Wystrzelony May 10, 1999 z Taiyuan Satellite Launch Center

Loading…

Następne Przeloty (najbliższe 24 godziny)

TLE

ŚwieżeSource: Space-Track

Epoka: Sep 13, 2026, 09:26 UTC

1 30724U 99025ASJ 26256.39328910  .00000544  00000-0  18942-3 0  9997
2 30724  99.3018 108.6932 0092683 180.0186 306.6544 14.37585926 23912

Śledź FENGYUN 1C DEB w czasie rzeczywistym z AllMySat

Download on the App Store